This demonstration page uses our WeatherBlox Daily Observations layout. Learn more.

Left ArrowRight Arrow

34.02893, -84.19858

Hourly Observations for August 4, 2020

Temp ( °F °C ) Dew Point ( °F °C ) Humidity (%) Winds ( mph kmh ) Pressure ( in mb ) Visibility ( mi km ) Precip ( " mm )
12:53 am 00:53 Clear 68 20 67 19.4 96 96 Calm 29.92 1013 10 16 0.00 0.00
1:53 am 01:53 Clear 67 19.4 66 18.9 97 97 Calm 29.92 1013 10 16 0.00 0.00
2:53 am 02:53 Clear 67 19.4 66 18.9 97 97 Calm 29.92 1013 10 16 0.00 0.00
3:53 am 03:53 Partly Cloudy 67 19.4 66 18.9 97 97 SSW 3 6 29.91 1013 10 16 0.00 0.00
4:53 am 04:53 Clear 67 19.4 67 19.4 100 100 Calm 29.91 1013 10 16 0.00 0.00
5:41 am 05:41 Partly Cloudy 68 20 67 19.4 96 96 W 5 7 29.93 1014 10 16 0.00 0.00
5:50 am 05:50 Mostly Cloudy 68 20 68 20 100 100 W 3 6 29.93 1014 10 16 0.00 0.00
5:53 am 05:53 Mostly Cloudy 68 20 68 20 100 100 W 5 7 29.92 1013 10 16 0.00 0.00
6:42 am 06:42 Partly Cloudy 68 20 67 19.4 96 96 W 5 7 29.95 1014 10 16 0.00 0.00
6:53 am 06:53 Sunny 68 20 67 19.4 96 96 WNW 3 6 29.94 1014 10 16 0.00 0.00
7:02 am 07:02 Mostly Sunny 68 20 67 19.4 96 96 W 5 7 29.95 1014 9 14 0.00 0.00
7:22 am 07:22 Mostly Cloudy 68 20 68 20 100 100 W 3 6 29.96 1015 9 14 0.00 0.00
7:49 am 07:49 Sunny 70 21 68 20 94 94 Calm 29.96 1015 10 16 0.00 0.00
7:53 am 07:53 Mostly Sunny 69 20.6 68 20 96 96 Calm 29.95 1014 10 16 0.00 0.00
8:53 am 08:53 Sunny 72 22.2 68 20 87 87 Calm 29.96 1015 10 16 0.00 0.00
9:53 am 09:53 Sunny 76 24.4 69 20.6 79 79 Calm 29.96 1015 10 16 0.00 0.00
10:53 am 10:53 Sunny 79 26.1 70 21.1 74 74 Calm 29.97 1015 10 16 0.00 0.00
11:53 am 11:53 Sunny 83 28.3 70 21.1 65 65 SW 5 7 29.96 1015 10 16 0.00 0.00
12:53 pm 12:53 Partly Cloudy 85 29.4 67 19.4 55 55 undefined N/A 29.95 1014 10 16 0.00 0.00
1:53 pm 13:53 Mostly Sunny 87 30.6 66 18.9 50 50 Calm 29.94 1014 10 16 0.00 0.00
2:53 pm 14:53 Sunny 87 30.6 67 19.4 51 51 VRB 3 6 29.93 1014 10 16 0.00 0.00
3:53 pm 15:53 Mostly Sunny 87 30.6 66 18.9 50 50 S 6 9 29.92 1013 10 16 0.00 0.00
4:53 pm 16:53 Partly Cloudy 87 30.6 68 20 53 53 WSW 6 9 29.90 1013 10 16 0.00 0.00
5:53 pm 17:53 Sunny 87 30.6 68 20 53 53 WSW 8 13 29.89 1012 10 16 0.00 0.00
6:53 pm 18:53 Sunny 84 28.9 66 18.9 55 55 SW 7 11 29.90 1012 10 16 0.00 0.00
7:53 pm 19:53 Sunny 80 26.7 69 20.6 69 69 N 6 9 29.92 1013 10 16 0.00 0.00
8:53 pm 20:53 Mostly Clear 79 26.1 68 20 69 69 Calm 29.93 1014 10 16 0.00 0.00
9:53 pm 21:53 Mostly Cloudy 77 25 70 21.1 79 79 Calm 29.94 1014 10 16 0.00 0.00
10:53 pm 22:53 Cloudy 77 25 71 21.7 82 82 Calm 29.96 1015 10 16 0.00 0.00
11:53 pm 23:53 Mostly Cloudy 76 24.4 69 20.6 79 79 Calm 29.96 1015 10 16 0.00 0.00

Powered by AerisWeather